Location: Pinhead Observatory
(34.4473°N, 118.1985°W)
Time: 23:59:45
(UTC-07:00)

Daily predictions for brighter satellites

Satellite Brightness Start Highest point End
(mag) Time Altitude Azimuth Time Altitude Azimuth Time Altitude Azimuth
Atlas Centaur 2 3.5 18:51:11 10° W 18:59:38 63° S 19:07:37 10° ESE
Cosmos 2237 Rocket 3.2 18:58:49 10° SW 19:04:22 54° WNW 19:09:56 10° N
ATLAS CENTAUR R/B 1.7 19:01:20 10° NNW 19:05:19 43° ENE 19:08:59 10° SE
Resurs 01 Rocket 2.8 19:05:37 10° ESE 19:09:04 23° ENE 19:12:32 10° NNE
Okean 3 Rocket 3.8 19:06:47 10° N 19:11:14 52° E 19:15:39 10° SSE
ATLAS 5 CENTAUR R/B 2.2 19:07:30 10° S 19:11:54 42° ESE 19:16:36 10° NE
Cosmos 1624 Rocket 4.1 19:09:29 10° N 19:14:37 57° ENE 19:19:42 10° SSE
Meteor 1-29 4.1 19:17:50 10° NE 19:20:44 24° E 19:23:37 10° SSE
ISS -1.2 19:20:22 10° SSE 19:21:36 12° SE 19:22:15 11° ESE
Cosmos 192 4.4 19:17:38 10° S 19:22:29 60° ESE 19:27:23 10° NNE
Milstar 3 4.4 19:13:58 10° WSW 19:23:24 67° S 19:40:01 14° E
SL-16 R/B 2.3 19:18:02 10° SSW 19:23:44 88° WNW 19:29:27 10° NNE
Cosmos 1953 3.1 19:21:14 10° SSE 19:24:40 28° E 19:28:06 10° NNE
BREEZE-M TANK 3.2 19:15:23 10° WNW 19:26:06 83° NNE 19:29:14 12° ESE
USA 215 3.3 19:23:26 10° NE 19:29:59 89° NW 19:36:32 10° SW
ATLAS CENTAUR R/B 3.3 19:26:43 10° SW 19:30:53 84° NW 19:43:48 10° NE
Spot 1 4.5 19:26:59 10° SSE 19:31:39 50° ENE 19:36:04 10° N
Helios 1A 3.6 19:28:38 10° SE 19:32:25 34° ENE 19:36:14 10° N
Cosmos 1805 3.7 19:31:29 10° SSE 19:35:08 37° E 19:38:47 10° NNE
OAO 1 Rocket 4.5 19:30:16 10° WSW 19:35:38 80° SSE 19:39:52 17° E
BREEZE-M DEB (TANK) 4.2 19:32:19 10° NW 19:36:08 82° SW 19:49:58 10° SE
H-2A R/B 4.4 19:36:27 16° ENE 19:36:47 16° ENE 19:39:15 10° NNE
Cosmos 1544 4.1 19:34:09 10° SE 19:37:13 25° E 19:40:18 10° NE
Cosmos 1072 Rocket 4.4 19:31:31 10° S 19:37:37 83° E 19:43:44 10° N
CZ-4B DEB 4.4 19:39:32 18° ENE 19:39:32 18° ENE 19:41:45 10° NNE
Cosmos 1378 3.0 19:36:42 10° N 19:40:26 81° E 19:44:09 10° S
SeaSat 1 3.4 19:37:58 10° NE 19:41:59 25° ESE 19:45:58 10° SSE
Meteor 1-28 Rocket 3.8 19:39:42 10° N 19:43:22 57° WNW 19:47:00 10° SSW
METEOR-M 4.1 19:38:07 10° SSE 19:43:24 67° ENE 19:48:43 10° N
Cosmos 1452 Rocket 4.0 19:39:02 10° N 19:43:56 39° ENE 19:47:54 15° SE
ALOS 3.0 19:42:51 15° SE 19:45:58 31° ENE 19:50:05 10° N
SEDSat Delta rocket 4.2 19:41:04 10° WSW 19:47:43 68° S 19:52:20 21° E
OAO 3 Rocket 3.1 19:43:24 10° W 19:48:10 86° N 19:51:11 23° E
Cosmos 1513 Rocket 4.5 19:45:42 10° S 19:52:03 81° E 19:58:28 10° N
FREGAT/IRIS 3.2 19:49:10 10° S 19:52:13 60° W 19:55:17 10° NNW
Cosmos 2278 Rocket 3.8 19:47:08 10° NW 19:52:17 37° WSW 19:57:24 10° S
FENGYUN 3A 4.1 19:48:13 13° SE 19:52:31 39° ENE 19:57:29 10° N
SJ-6B 3.9 19:52:27 10° S 19:56:14 48° W 20:00:09 10° NNW
Cosmos 724 4.2 19:50:24 10° SSW 19:56:15 76° ESE 20:02:18 10° NNE
Cosmos 468 4.4 19:51:36 10° S 19:56:47 63° ESE 20:01:58 10° NNE
Meteor 2-12 Rocket 4.4 19:51:10 10° S 19:57:16 67° E 20:03:22 10° NNE
Cosmos 2297 3.9 19:51:49 10° NNW 19:57:28 74° WSW 20:03:04 10° SSE
NOSS 3-2 (A) 4.4 19:55:05 10° SW 20:00:53 48° NW 20:07:10 10° NNE
Cosmos 1766 Rocket 3.4 19:58:49 10° N 20:03:12 83° E 20:07:31 10° S
Cosmos 1758 3.4 20:02:07 10° S 20:06:10 78° W 20:10:17 10° N
Cosmos 1943 3.9 20:03:05 10° SSE 20:14:49 - NE 20:07:18 30° ESE
Cosmos 1603 3.6 20:05:13 10° SSW 20:10:56 84° ESE 20:16:43 10° NNE
Cosmos 2369 Rocket 3.7 20:07:10 10° NNE 20:10:43 19° NE 20:10:43 19° NE
Cosmos 2034 Rocket 4.1 20:05:52 10° S 20:12:05 77° W 20:18:25 10° N
GPS 2-04 Rocket1 2.8 20:12:24 10° SW 20:15:36 48° S 20:15:36 48° S
Timation 1 Rocket 4.5 20:11:02 10° NNW 20:17:00 75° WSW 20:22:41 11° SSE
Cosmos 1269 Rocket 3.9 20:13:05 10° S 20:18:21 77° ESE 20:23:38 10° NNE
Cosmos 1076 Rocket 4.5 20:15:08 10° NNW 20:19:18 48° W 20:23:28 10° SSW
Spot 2 Rocket 4.0 20:15:11 10° S 20:20:08 58° WSW 20:25:06 10° NNW
Helios 1B rocket 3.8 20:16:23 10° N 20:20:14 40° WNW 20:24:04 10° SW
Cosmos-2242 3.5 20:16:22 10° SSW 20:20:40 61° W 20:25:00 10° N
Cosmos 1048 Rocket 3.9 20:17:12 10° S 20:22:29 71° ESE 20:27:44 10° NNE
Meteosat 1 Rocket2 4.5 20:19:49 10° SW 20:24:56 28° S 20:25:10 28° SSE
SL-8 R/B 3.7 20:21:26 10° SW 20:26:13 81° NW 20:27:44 44° NE
ASTEX 1 3.2 20:21:23 10° N 20:26:18 81° E 20:31:11 10° S
FengYun 1-2 T 4.4 20:20:49 10° S 20:26:19 72° WSW 20:31:49 10° NNW
Cosmos 1674 4.1 20:24:58 10° N 20:26:55 27° NNE 20:26:55 27° NNE
Cosmos 1842 Rocket 3.4 20:32:03 77° ENE 20:32:03 77° ENE 20:36:13 10° N
BREEZE-M DEB (TANK) 4.3 20:29:31 10° W 20:32:18 28° SSW 20:36:39 15° SSE
ASTRO E2 3.3 20:30:01 10° W 20:33:30 49° SSW 20:33:30 49° SSW
Abrixas 4.4 20:32:13 10° WSW 20:33:58 29° W 20:33:58 29° W
Cosmos 1500 Rocket 4.1 20:32:58 10° N 20:36:15 46° NNE 20:36:15 46° NNE
CENTAUR R/B 2.3 20:31:47 10° SSW 20:37:36 65° ESE 20:40:44 31° NE
ATLAS CENTAUR R/B 4.3 20:42:31 10° W 20:43:49 11° WSW 20:45:04 10° SW
Resurs 01 Rocket 3.7 20:41:36 10° SSW 20:45:22 27° W 20:49:10 10° NW
Atlas Centaur 2 3.8 20:41:26 10° W 20:49:03 38° SSW 20:51:29 31° S
CZ-2D R/B 4.4 20:53:47 43° WNW 20:53:47 43° WNW 20:56:55 10° NNW
ATLAS 5 CENTAUR R/B 4.2 20:53:07 10° W 20:56:46 21° NW 21:00:39 10° N
ISS -0.3 20:54:34 10° WSW 20:55:00 13° WSW 20:55:00 13° WSW
SeaSat 1 3.9 21:15:01 10° N 21:19:30 36° WNW 21:23:58 10° SW
BREEZE-M DEB (TANK) 4.3 21:14:13 10° SW 21:30:34 71° S 21:30:34 71° S
Cosmos 2369 Rocket 4.0 21:49:56 10° NNW 21:52:32 27° NW 21:52:32 27° NW
